Flag for Hungary Weather past 2 weeks in Miskolc, Hungary

Now
42 °F

Partly sunny.


Feels Like: 40 °F
Forecast: 36 / 45 °F
Wind: 5 mph from Northwest

Location: Miskolc

Current Time: Apr 1, 2015 at 1:07:24 PM

Latest Report: Apr 1, 2015 at 12:00 PM


Visibility: 28 mi

Pressure: 29.72 "Hg

Humidity: 66%

Dew point: 32 °F

Location of MiskolcLocation

Historic Weather in Miskolc — Graph

°F

Miskolc temperature yesterday

Maximum temperature yesterday: 48 °F (at 4:00 PM)
Minimum temperature yesterday: 39 °F (at 9:00 PM)
Average temperature yesterday: 44 °F

Past Weeks' High & Low Weather Summary

 TemperatureHumidityPressure
High71 °F (Mar 27, 3:00 PM)90% (Mar 31, 10:00 PM)30.59 "Hg (Mar 31, 10:00 PM)
Low28 °F (Mar 23, 6:00 AM)22% (Mar 23, 2:00 PM)29.47 "Hg (Mar 30, 1:00 PM)
Average47 °F55%29.98 "Hg
* Reported Mar 17 10:00 AM — Apr 1 11:00 AM, Miskolc, Weather by CustomWeather, © 2015

Note: Actual official high and low records may vary slightly from our data, if they occured in-between our weather recording intervals... More about our weather records

Advertising

Miskolc weather history for previous 24 hours

 ConditionsComfort  
Time TempWeatherWind HumidityBarometerVisibility
11:00 AM
Wed, Apr 1
49 °FSleet. Overcast.7 mph41%29.68 "Hg31 mi
10:00 AM48 °FPartly sunny.6 mph44%29.67 "Hg31 mi
9:00 AM46 °FScattered clouds.7 mph44%29.65 "Hg31 mi
8:00 AM45 °FPartly sunny.6 mph51%29.64 "Hg31 mi
7:00 AM44 °FScattered clouds.6 mph52%29.61 "Hg25 mi
6:00 AM43 °FClear.8 mph53%29.59 "Hg25 mi
5:00 AM43 °FClear.6 mph54%29.61 "Hg25 mi
4:00 AM43 °FClear.5 mph59%29.60 "Hg25 mi
3:00 AM44 °FPassing clouds.5 mph59%29.58 "Hg25 mi
2:00 AM37 °FPassing clouds.1 mph86%29.59 "Hg19 mi
1:00 AM38 °FPassing clouds.5 mph88%29.56 "Hg25 mi
12:00 AM47 °FPassing clouds.8 mph67%29.47 "Hg19 mi
10:00 PM
Tue, Mar 31
40 °FOvercast.2 mph90%29.50 "Hg4 mi
9:00 PM39 °FOvercast.1 mph89%29.50 "Hg2 mi
8:00 PM43 °FLight rain. Overcast.2 mph89%29.50 "Hg2 mi
7:00 PM44 °FRain. Overcast.1 mph86%29.47 "Hg2 mi
6:00 PM46 °FRain. Overcast.3 mph74%29.47 "Hg5 mi
5:00 PM46 °FLight rain. Overcast.2 mph71%29.50 "Hg11 mi
4:00 PM48 °FOvercast.3 mph66%29.54 "Hg16 mi
3:00 PM42 °FLight rain. Overcast.2 mph80%29.59 "Hg12 mi
2:00 PM41 °FLight rain. Overcast.3 mph76%29.65 "Hg9 mi
1:00 PM44 °FLight rain. Overcast.3 mph55%29.66 "Hg25 mi
Weather by CustomWeather, © 2015

See weather overviewHow to use our weather pages